Location: Edemissen
(51.7689°N, 9.8634°E)
Time: 21:22:21
(UTC+00:00)

USA 234 - Visible Passes

Search period start: 13 September 2024 00:00
Search period end: 23 September 2024 00:00
Orbit: 1100 x 1107 km, 123.0° (Epoch: 08 July)

Date Brightness Start Highest point End Pass type
(mag) Time Alt. Az. Time Alt. Az. Time Alt. Az.
13 Sep 5.9 18:18:49 10° SW 18:21:22 12° WSW 18:23:55 10° W visible
15 Sep 5.8 18:36:20 10° SW 18:38:50 12° WSW 18:41:21 10° W visible
17 Sep 5.8 18:53:51 10° SW 18:56:18 12° WSW 18:58:46 10° W visible
18 Sep 5.3 18:07:35 10° S 18:12:46 25° SW 18:18:00 10° WNW visible
19 Sep 5.7 19:11:22 10° SW 19:13:47 12° WSW 19:16:12 10° W visible
20 Sep 5.2 18:25:04 10° S 18:30:15 25° SW 18:35:28 10° WNW visible
21 Sep 4.4 17:40:46 10° SSE 17:46:57 43° SW 17:53:10 10° WNW visible
21 Sep 5.7 19:28:53 10° SW 19:31:15 12° WSW 19:33:36 10° W visible
22 Sep 5.1 18:42:32 10° S 18:47:43 25° SW 18:52:55 10° WNW visible
